Flag for Russia Weather past 2 weeks in Yekaterinburg, Russia

Now
41 °F

More clouds than sun.


Feels Like: 36 °F
Forecast: 28 / 41 °F
Wind: 8 mph from Northwest

Location: Ekaterinburg

Current Time: Apr 26, 2015 at 10:32:14 AM

Latest Report: Apr 26, 2015 at 10:00 AM


Visibility: N/A

Pressure: 29.47 "Hg

Humidity: 70%

Dew point: 32 °F

Location of YekaterinburgLocation

Historic Weather in Yekaterinburg — Graph

°F

Yekaterinburg temperature yesterday

Maximum temperature yesterday: 46 °F (at 4:00 PM)
Minimum temperature yesterday: 30 °F (at 11:30 PM)
Average temperature yesterday: 38 °F

Past Weeks' High & Low Weather Summary

 TemperatureHumidityPressure
High61 °F (Apr 16, 2:30 PM)100% (Apr 12, 3:30 AM)30.09 "Hg (Apr 12, 3:30 AM)
Low23 °F (Apr 23, 3:30 AM)25% (Apr 16, 3:00 PM)29.30 "Hg (Apr 25, 4:00 AM)
Average40 °F75%29.64 "Hg
* Reported Apr 11 9:00 AM — Apr 26 9:30 AM, Yekaterinburg, Weather by CustomWeather, © 2015

Note: Actual official high and low records may vary slightly from our data, if they occured in-between our weather recording intervals... More about our weather records

Advertising

Yekaterinburg weather history for previous 24 hours

 ConditionsComfort  
Time TempWeatherWind HumidityBarometerVisibility
9:30 AM
Sun, Apr 26
41 °FPartly sunny.8 mph76%29.47 "HgN/A
9:00 AM39 °FPartly sunny.6 mph81%29.47 "HgN/A
8:30 AM36 °FPartly sunny.8 mph93%29.47 "HgN/A
8:00 AM36 °FPartly sunny.8 mph93%29.47 "HgN/A
7:30 AM34 °FBroken clouds.8 mph100%29.47 "HgN/A
7:00 AM30 °FScattered clouds.3 mph93%29.47 "HgN/A
6:30 AM28 °FScattered clouds.3 mph100%29.47 "HgN/A
6:00 AM28 °FClear.3 mph100%29.47 "Hg10 mi
5:30 AM27 °FFog.1 mph93%29.47 "HgN/A
5:00 AM25 °FFog.1 mph93%29.47 "HgN/A
4:30 AM27 °FClear.1 mph100%29.47 "Hg10 mi
4:00 AM30 °FClear.3 mph93%29.47 "Hg10 mi
3:30 AM28 °FClear.6 mph100%29.47 "Hg10 mi
3:00 AM28 °FClear.1 mph100%29.47 "Hg10 mi
2:00 AM28 °FPassing clouds.3 mph100%29.47 "HgN/A
1:30 AM28 °FPassing clouds.3 mph100%29.47 "HgN/A
1:00 AM30 °FPassing clouds.6 mph93%29.47 "HgN/A
12:30 AM30 °FClear.3 mph93%29.50 "Hg10 mi
12:00 AM30 °FClear.6 mph100%29.50 "Hg10 mi
11:30 PM
Sat, Apr 25
30 °FPartly cloudy.6 mph100%29.50 "HgN/A
11:00 PM32 °FPartly cloudy.8 mph93%29.50 "HgN/A
10:30 PM32 °FPassing clouds.6 mph100%29.50 "HgN/A
10:00 PM32 °FClear.3 mph100%29.50 "Hg10 mi
9:30 PM32 °FPassing clouds.6 mph100%29.50 "HgN/A
9:00 PM32 °FBroken clouds.3 mph93%29.50 "HgN/A
8:30 PM34 °FBroken clouds.6 mph93%29.50 "HgN/A
8:00 PM36 °FBroken clouds.8 mph87%29.50 "HgN/A
7:30 PM37 °FPartly sunny.20 mph87%29.50 "HgN/A
7:00 PM37 °FPartly sunny.13 mph87%29.47 "HgN/A
6:30 PM41 °FSprinkles. Mostly cloudy.15 mph76%29.47 "HgN/A
6:00 PM43 °FBroken clouds.20 mph66%29.47 "HgN/A
5:30 PM41 °FPartly sunny.17 mph76%29.47 "HgN/A
5:00 PM46 °FPartly sunny.22 mph57%29.47 "HgN/A
4:00 PM46 °FPartly sunny.24 mph62%29.45 "HgN/A
3:30 PM45 °FPartly sunny.24 mph71%29.45 "HgN/A
3:00 PM43 °FSprinkles. Partly sunny.20 mph81%29.45 "Hg4 mi
2:30 PM45 °FPartly sunny.17 mph61%29.45 "HgN/A
2:00 PM45 °FPartly sunny.15 mph66%29.45 "HgN/A
1:30 PM45 °FMostly cloudy.24 mph61%29.45 "HgN/A
1:00 PM41 °FMostly cloudy.24 mph76%29.45 "HgN/A
12:30 PM41 °FSprinkles. Mostly cloudy.22 mph76%29.45 "HgN/A
12:00 PM41 °FSprinkles. Mostly cloudy.24 mph76%29.42 "HgN/A
11:30 AM39 °FMostly cloudy.20 mph81%29.42 "HgN/A
11:00 AM39 °FMostly cloudy.24 mph81%29.39 "HgN/A
10:30 AM39 °FMostly cloudy.24 mph81%29.39 "HgN/A
10:00 AM39 °FMostly cloudy.22 mph81%29.36 "HgN/A
Weather by CustomWeather, © 2015

See weather overviewHow to use our weather pages